MOLNIYA 1-87

Last updated on Aug. 7, 2020, 5:36 a.m. UTC

1 22949U 93079A   20219.80345379 -.00000952  00000-0  00000+0 0  9993
2 22949  63.4120 166.9041 6811424 288.7041  12.4671  2.02870698195498
UTC
Height (km)
Latitude
Longitude
Inclination
Orbital Period
UTC large
Height (km)
Speed (km/s)
/
Latitude / Longitude
Inclination (degrees)
Orbital Period (minutes)
Azimuth
Elevation
Range (km)
Doppler Factor
iOS Compass Heading
iOS Angle

Next 30 passes for location: Hong Kong

Rise time Rise Azimuth (degrees) Set time Set Azimuth (degrees) Duration Max altitude (degrees)

No matching passes for this satellites